Regional Weather Roundup
Issued by NWS Huntsville, AL

Home | Current Version | Previous Version | Text Only | Print | Product List | Glossary On
Versions: 1 2 3 4 5 6 7 8 9 10 11 12 13 14 15 16 17 18 19 20 21 22 23 24 25 26 27 28 29 30 31 32 33 34 35 36 37 38 39 40 41 42 43 44 45 46 47 48 49 50
000
ASUS44 KHUN 041410
RWRHUN

WEATHER ROUNDUP FOR THE TENNESSEE VALLEY
NATIONAL WEATHER SERVICE HUNTSVILLE AL
900 AM CDT FRI SEP 04 2015

ALZ001>004-041500-
NORTHWEST ALABAMA

CITY           SKY/WX    TMP DP  RH WIND       PRES   REMARKS
BANKHEAD NF      N/A     79  79 100 CALM        N/A
SHOALS AIRPORT SUNNY     80  72  76 CALM      30.05R
SHOALS TVA RES   N/A     77 N/A N/A MISG        N/A
$$

ALZ005>007-016-041500-
NORTH CENTRAL ALABAMA

CITY           SKY/WX    TMP DP  RH WIND       PRES   REMARKS
CULLMAN AG STN   N/A     77 N/A N/A CALM        N/A
DECATUR AP     SUNNY     78  73  84 CALM      30.04S
HUNTSVILLE AP  SUNNY     81  71  71 CALM      30.04S
HUN NWS/UAH      N/A     82  69  66 SW2         N/A
MERIDIANVILLE  SUNNY     73  68  83 CALM      30.05S
REDSTONE ARSN  SUNNY     78  73  86 VRB1      30.03F
VINEMONT AP    FAIR      79  70  73 CALM      30.07S
$$

ALZ008>010-041500-
NORTHEAST ALABAMA

CITY           SKY/WX    TMP DP  RH WIND       PRES   REMARKS
ALBERTVILLE    MOSUNNY   75  75 100 CALM      30.05S
FORT PAYNE     SUNNY     73  66  78 CALM      30.05S
SCOTTSBORO AP  CLOUDY    72  72 100 NE5       30.06S FOG
SCOTTSBORO HCN   N/A     70 N/A N/A MISG        N/A
VALLEY HEAD      N/A     72 N/A N/A MISG        N/A
$$

TNZ076-096-097-041500-
SOUTHEASTERN MIDDLE TENNESSEE

CITY           SKY/WX    TMP DP  RH WIND       PRES   REMARKS
TULLAHOMA      SUNNY     79  68  69 CALM      30.08R
WINCHESTER     SUNNY     79  72  78 CALM      30.06S
$$

...SURROUNDING SITES...

CITY           SKY/WX    TMP DP  RH WIND       PRES   REMARKS
ATLANTA        MOSUNNY   79  69  71 CALM      30.03S
ANNISTON       SUNNY     76  69  79 CALM      30.04S
BIRMINGHAM     SUNNY     79  72  79 CALM      30.05F
CHATTANOOGA    PTSUNNY   78  69  73 N5        30.05S
DALTON         SUNNY     73  70  88 CALM      30.04S
GADSDEN        SUNNY     75  68  78 CALM      30.03S
GOLDEN TRNGL   SUNNY     81  70  69 NW5       30.02S
HALEYVILLE     FAIR      80  74  82 CALM      30.08S
JACKSON TN     SUNNY     79  72  79 E5        30.04R
MEMPHIS        MOSUNNY   86  71  60 CALM      30.02S HX  91
NASHVILLE      SUNNY     82  69  64 CALM      30.06R
OXFORD MS      FAIR      79  68  69 S3        30.05R
ROME           SUNNY     74  70  87 CALM      30.03S
SAVANNAH       SUNNY     79  32  18 CALM      30.04S
TUPELO         SUNNY     80  73  79 CALM      30.02S
TUSCALOOSA     SUNNY     78  72  81 CALM      30.02S
$$

...GULF COAST WEATHER...

CITY           SKY/WX    TMP DP  RH WIND       PRES   REMARKS
GULFPORT       SUNNY     82  74  76 CALM      30.00R
PASCAGOULA     MOSUNNY   81  76  84 NE5       30.01S
MOBILE         PTSUNNY   80  75  84 VRB3      30.03R
GULF SHORES    SUNNY     82  77  85 N5        30.01S
PENSACOLA      MOSUNNY   82  75  79 N7        30.00S
DESTIN         SUNNY     83  75  77 N8        30.00F HX  90
PANAMA CITY    SUNNY     84  74  73 N6        30.00S HX  91
APPALACHICOLA  MOSUNNY   83  76  79 N7        29.99S HX  91
$$



USA.gov is the U.S. government's official web portal to all federal, state and local government web resources and services.